Location: Kottap?lem
(16.2517°N, 80.6911°E)
Time: 20:34:58
(UTC+00:00)

Daily predictions for brighter satellites

Satellite Brightness Start Highest point End
(mag) Time Altitude Azimuth Time Altitude Azimuth Time Altitude Azimuth
DELTA 2 R/B (1) 3.7 13:01:41 10° NW 13:07:15 85° SW 13:12:51 10° SE
USA 229 DEB 4.2 13:00:14 10° NNW 13:07:48 82° WSW 13:15:31 10° SSE
USA 229 4.2 13:00:20 10° NNW 13:07:55 83° WSW 13:15:38 10° SSE
NOSS 3-3 (A) 3.7 13:03:41 10° SSW 13:09:14 81° ESE 13:15:04 10° NNE
NOSS 3-3 (C) 3.7 13:03:47 10° SSW 13:09:20 79° ESE 13:15:10 10° NNE
Cosmos 2315 Rocket 4.4 13:05:07 10° SSE 13:11:00 43° E 13:16:54 10° NNE
SL-4 R/B 2.2 13:09:34 10° SW 13:13:02 59° NW 13:16:23 10° NNE
Cosmos 1939 Rocket 3.2 13:11:33 10° SSE 13:15:22 44° ENE 13:19:08 10° N
NOSS 3-1 (A) 4.3 13:07:45 10° NNW 13:16:13 77° ENE 13:25:10 10° SSE
Cosmos 2278 Rocket 2.2 13:11:35 10° NNW 13:17:16 88° ENE 13:22:55 10° SSE
Cosmos 2251 Rocket 3.8 13:12:58 10° S 13:18:03 47° E 13:23:10 10° NNE
GPS 2-15 Rocket1 3.7 13:15:03 10° W 13:19:54 56° N 13:24:41 10° ENE
Cosmos 1726 4.1 13:20:57 10° E 13:21:13 10° E 13:21:51 10° E
OAO 2 Rocket 3.8 13:18:07 10° NW 13:23:06 47° NNE 13:27:33 12° ESE
CSL-04 Debris 4.3 13:21:47 10° SSE 13:27:07 54° ENE 13:32:26 10° N
Aureole 3 4.2 13:25:01 10° SE 13:27:57 25° E 13:31:26 10° NNE
Cosmos 1455 Rocket 4.5 13:27:32 10° SSW 13:31:36 41° W 13:35:42 10° NNW
YAOGAN 1 2.5 13:27:54 10° SSE 13:32:12 80° E 13:36:31 10° N
Meteor 2-16 Rocket 4.5 13:28:07 10° N 13:34:16 88° E 13:40:24 10° S
Hubble Space Telescope 1.2 13:30:35 10° SW 13:34:30 45° SSE 13:37:21 17° E
ADEOS Rocket 4.4 13:28:58 10° N 13:34:32 41° WNW 13:39:44 10° SW
Atlas Centaur 2 3.9 13:29:03 10° W 13:34:41 29° SW 13:39:20 10° SSE
Cosmos 371 Rocket 4.0 13:30:23 10° NNW 13:35:06 56° WSW 13:39:51 10° S
Cosmos 1953 3.1 13:32:39 10° SSE 13:36:04 29° E 13:39:31 10° NNE
Ariane H10 4.1 13:37:56 10° SW 13:40:03 16° S 13:41:25 12° SE
Cosmos 1709 Rocket 4.3 13:35:32 10° NNE 13:41:16 42° E 13:46:57 10° SSE
Cosmos 1331 Rocket 3.9 13:41:23 10° N 13:46:29 68° ENE 13:51:36 10° SSE
Ariane Rocket 3.8 13:44:29 17° ESE 13:47:24 29° ENE 13:51:44 10° NNE
Meteor 1-24 Rocket 3.5 13:42:44 10° N 13:48:04 81° E 13:53:21 10° S
Cosmos 1943 Rocket 4.1 13:46:34 10° NE 13:47:30 11° ENE 13:47:30 11° ENE
Cosmos 1386 Rocket 4.5 13:42:52 10° N 13:48:53 83° W 13:54:55 10° S
Cosmos 1943 3.1 13:43:51 10° S 13:49:27 74° ESE 13:55:05 10° NNE
Delta 198 4.4 13:43:35 10° WSW 13:49:29 86° NNW 13:54:37 18° ENE
CZ-3A R/B 4.0 13:09:45 10° WNW 13:50:34 68° N 13:56:14 21° E
Meteor 2-5 Rocket 4.2 13:46:53 10° NNW 13:52:19 60° W 13:57:45 10° S
USA 234 3.7 13:46:46 10° NNE 13:53:11 62° NW 13:59:37 10° SW
Cosmos 1626 Rocket 4.0 13:51:45 10° NNE 13:55:45 37° E 13:57:11 29° SE
CSL-04 Rocket 3.9 13:51:58 10° S 13:57:18 72° WSW 14:02:34 10° NNW
Cosmos 1470 4.0 13:53:56 10° SSW 13:57:36 42° W 14:01:16 10° NNW
CZ-2C R/B 3.9 13:57:44 10° NNE 14:02:13 48° E 14:06:36 10° S
SJ-11-01 4.3 14:01:17 18° SSE 14:04:36 58° ENE 14:09:11 10° N
Cosmos 1602 Rocket 4.1 14:01:25 10° NNE 14:05:11 36° ENE 14:05:11 36° ENE
Cosmos 1626 2.0 14:02:14 10° N 14:05:55 86° W 14:08:55 15° S
FALCON 9 DEB 3.6 14:04:09 10° SSW 14:06:55 44° SSE 14:06:55 44° SSE
CZ-3B Rocket 2.1 14:13:01 10° SW 14:16:24 44° SSE 14:16:39 43° SSE
CZ-2C R/B 3.2 14:16:43 47° E 14:17:14 48° ENE 14:22:00 10° N
ATLAS 3B CENTAUR R/B 1.8 14:11:28 10° WNW 14:18:06 55° SSW 14:18:50 47° S
Cosmos 614 Rocket 3.8 14:19:37 10° S 14:24:47 66° ESE 14:29:57 10° NNE
ARGOS 3.1 14:28:28 59° E 14:28:46 60° ENE 14:34:03 10° N
IRIDIUM 106 4.4 14:24:22 10° N 14:28:51 55° NE 14:28:51 55° NE
MOS 1 Rocket 3.8 14:28:37 10° NNE 14:32:54 52° NE 14:32:54 52° NE
IRS-1A Rocket 4.2 14:33:32 35° S 14:36:01 84° WSW 14:41:43 10° NNW
Meteor 1-21 Rocket 4.4 14:33:27 10° N 14:37:52 53° NE 14:37:52 53° NE
Meteor 1-16 Rocket 4.3 14:33:51 10° SSW 14:39:06 67° W 14:44:25 10° N
CZ-2C R/B 3.5 14:34:06 10° NNE 14:37:01 34° NNE 14:37:01 34° NNE
H-2A R/B 2.1 14:38:42 48° S 14:40:13 79° WSW 14:45:29 10° NNW
ATLAS 5 CENTAUR R/B 4.0 14:59:42 10° SW 15:00:18 13° SW 15:00:18 13° SW
Nadezhda 1 Rocket 4.2 14:57:49 10° SSW 15:04:08 68° W 15:10:29 10° N
Hubble Space Telescope 3.7 15:11:50 10° W 15:12:44 15° W 15:12:44 15° W
Cosmos 2369 Rocket 4.1 15:19:58 10° NNW 15:21:48 21° NNW 15:21:48 21° NNW
Cosmos 1943 Rocket 4.0 15:26:42 10° NNW 15:29:04 25° NW 15:29:04 25° NW
ATLAS 5 CENTAUR R/B 3.7 15:57:33 10° W 16:39:41 17° E 16:52:46 10° E
ATLAS 3B R/B 3.7 21:45:01 39° E 21:45:01 39° E 21:50:16 10° NE
Centaur AC-119 4.4 21:50:59 83° ENE 21:50:59 83° ENE 22:16:28 10° ESE
Cosmos 2237 Rocket 4.1 21:56:08 10° NNE 22:00:48 26° ENE 22:05:28 10° SE
CZ-2C R/B 3.7 22:12:44 10° NNE 22:15:43 34° ENE 22:15:43 34° ENE
EPKM 4.5 22:33:21 45° WSW 22:37:09 82° SSE 22:41:21 10° ENE
Meteor 1-4 Rocket 4.2 22:42:46 31° NNE 22:42:46 31° NNE 22:44:51 10° NNE
CENTAUR R/B 3.7 22:43:36 23° NNW 22:43:36 23° NNW 22:46:42 10° N
ADEOS 3.7 22:40:37 10° N 22:45:08 58° NW 22:45:08 58° NW
NOSS 0 Rocket 3.8 22:42:52 10° NNW 22:48:56 65° WSW 22:55:01 10° S
Cosmos 1092 Rocket 4.3 22:43:20 10° S 22:49:36 67° E 22:55:53 10° NNE
ALOS 4.5 22:46:08 10° NE 22:49:55 25° E 22:53:41 10° SSE
BREEZE-M DEB (TANK) 3.6 22:49:05 27° SSE 22:50:10 31° SE 22:52:42 10° ENE
Cosmos 1674 Rocket 3.5 22:55:39 38° S 22:57:20 85° E 23:01:45 10° N
Cosmos 1980 3.6 22:56:53 10° NNW 23:02:27 64° WSW 23:08:00 10° S
Yuri Rocket 2.8 23:03:21 58° WNW 23:04:09 89° NNE 23:08:50 10° ESE
Cosmos 2026 Rocket 4.4 23:00:06 10° S 23:06:13 64° E 23:12:15 10° NNE
Nadezhda 4 Rocket 4.2 23:05:38 33° SW 23:07:52 45° W 23:13:51 10° NNW
GPS 2-04 Rocket1 4.3 23:06:45 17° NNW 23:08:59 29° NNE 23:12:18 10° E
ATLAS 5 CENTAUR R/B 3.9 23:06:48 28° WSW 23:10:04 36° WNW 23:14:13 10° N
GPS 2-18 Rocket1 3.6 23:15:33 41° SW 23:16:00 43° SSW 23:19:46 10° SE
H-2A R/B 2.3 23:12:10 10° NNE 23:16:08 81° ESE 23:19:58 10° S
Cosmos 1867 3.7 23:14:14 32° SW 23:16:28 52° WNW 23:21:46 10° N
SL-16 R/B 3.3 23:13:01 10° N 23:18:27 46° ENE 23:23:51 10° SE
Star 48 S/N 10025-3 4.3 23:19:38 38° SW 23:20:42 66° SSE 23:22:45 10° E
SL-4 R/B 2.2 23:20:12 26° WNW 23:22:25 57° SW 23:26:54 10° SSE
FENGYUN 3A 4.0 23:18:03 10° NNE 23:23:24 68° ESE 23:28:43 10° S
Cosmos 1484 Rocket 2.6 23:22:55 10° N 23:26:40 67° WNW 23:30:20 10° SSW
METEOR-M 4.4 23:21:44 10° NNE 23:27:03 70° ESE 23:32:22 10° S
Okean 2 Rocket 3.3 23:22:53 10° NNW 23:27:13 47° W 23:31:33 10° SSW
Cosmos 2151 Rocket 3.4 23:23:19 10° N 23:27:41 79° W 23:32:04 10° S
Meteor PRIRODA 3.5 23:25:06 10° N 23:28:46 89° W 23:32:26 10° SSW
Okean O Rocket 4.5 23:26:11 10° NE 23:29:21 19° E 23:32:30 10° SE
ATLAS 3B R/B 3.8 23:32:20 19° W 23:34:41 23° WNW 23:39:46 10° N
Cosmos 1300 Rocket 3.8 23:32:25 10° NNW 23:36:31 44° W 23:40:38 10° SSW
Palapa 6 Rocket 3.8 23:34:54 18° WNW 23:37:35 41° N 23:42:12 10° ENE
Cosmos 1378 Rocket 4.1 23:34:43 10° SSW 23:38:39 35° W 23:42:36 10° NNW
PSLV R/B 3.9 23:34:43 10° S 23:38:55 80° WSW 23:43:07 10° NNW
Cosmos 1437 Rocket 2.7 23:37:45 10° S 23:41:49 78° W 23:45:54 10° N
SJ-12 3.8 23:38:52 10° N 23:42:55 75° WNW 23:46:57 10° SSW
Hubble Space Telescope 2.7 23:42:37 13° SW 23:43:30 13° SSW 23:45:32 10° S
Cosmos 2237 Rocket 3.1 23:40:06 10° NW 23:44:36 24° WSW 23:49:05 10° SSW
Okean 2 3.9 23:40:32 10° S 23:44:38 64° E 23:48:42 10° NNE
GPS 2-12 Rocket1 2.9 23:41:45 16° WNW 23:45:17 85° NNE 23:49:46 10° E
SeaSat 1 2.4 23:42:02 10° SSE 23:46:57 88° WSW 23:51:53 10° NNW
GPS 2-14 Rocket1 2.7 23:45:07 16° WSW 23:48:13 73° SSE 23:52:08 10° E
Cosmos 2263 Rocket 2.7 23:43:07 10° SW 23:48:19 39° WNW 23:53:34 10° N
Cosmos 1269 Rocket 4.2 23:45:06 10° N 23:50:23 78° ENE 23:55:40 10° SSE
SWIFT 3.0 23:47:53 13° WNW 23:51:33 46° N 23:55:37 10° ENE
Lacrosse 5 4.1 23:49:19 10° S 23:53:27 25° ESE 23:57:35 10° ENE
Cosmos 494 Rocket 4.0 23:48:39 10° NNW 23:53:49 60° WSW 23:58:57 10° S
Cosmos 1689 Rocket 4.0 23:56:47 12° W 23:56:47 12° W 23:57:52 10° WNW
